Flag for Germany Weather past 2 weeks in Aurich, Lower Saxony, Germany

Now
48 °F

Drizzle. Partly sunny.


Feels Like: 43 °F
Forecast: 40 / 45 °F
Wind: 13 mph from Southwest

Location: Wittmundhaven

Current Time: Mar 29, 2015 at 4:37:05 PM

Latest Report: Mar 29, 2015 at 3:20 PM


Visibility: 5 mi

Pressure: 29.27 "Hg

Humidity: 87%

Dew point: 45 °F

Location of AurichLocation

Historic Weather in Aurich — Graph

°F

Aurich temperature yesterday

Maximum temperature yesterday: 50 °F (at 11:20 PM)
Minimum temperature yesterday: 34 °F (at 5:55 AM)
Average temperature yesterday: 43 °F

Past Weeks' High & Low Weather Summary

 TemperatureHumidityPressure
High57 °F (Mar 17, 3:20 PM)100% (Mar 18, 5:20 AM)30.48 "Hg (Mar 18, 5:20 AM)
Low30 °F (Mar 23, 4:20 AM)31% (Mar 19, 3:20 PM)29.27 "Hg (Mar 29, 3:20 PM)
Average42 °F81%30.07 "Hg
* Reported Mar 14 2:20 PM — Mar 29 3:20 PM, Aurich, Weather by CustomWeather, © 2015

Note: Actual official high and low records may vary slightly from our data, if they occured in-between our weather recording intervals... More about our weather records

Advertising

Aurich weather history for previous 24 hours

 ConditionsComfort  
Time TempWeatherWind HumidityBarometerVisibility
3:20 PM
Sun, Mar 29
48 °FDrizzle. Partly sunny.13 mph87%29.27 "Hg5 mi
2:20 PM48 °FBroken clouds.13 mph87%29.33 "HgN/A
1:20 PM48 °FSprinkles. Broken clouds.14 mph82%29.36 "HgN/A
12:20 PM48 °FBroken clouds.15 mph76%29.42 "HgN/A
11:20 AM48 °FPartly sunny.25 mph76%29.45 "HgN/A
10:20 AM48 °FBroken clouds.15 mph87%29.45 "HgN/A
9:20 AM46 °FDrizzle. Fog.18 mph93%29.47 "Hg3 mi
8:20 AM46 °FDrizzle. Fog.15 mph93%29.47 "Hg3 mi
7:46 AM46 °FDrizzle. Fog.14 mph93%29.47 "Hg2 mi
7:20 AM46 °FPassing clouds.13 mph87%29.47 "Hg5 mi
6:20 AM46 °FPassing clouds.16 mph93%29.50 "HgN/A
5:20 AM48 °FDrizzle. Fog.22 mph94%29.50 "Hg2 mi
4:20 AM48 °FDrizzle. Fog.18 mph94%29.50 "Hg2 mi
3:20 AM48 °FDrizzle. Fog.18 mph94%29.50 "Hg2 mi
1:20 AM48 °FPassing clouds.17 mph94%29.53 "Hg5 mi
12:20 AM48 °FDrizzle. Fog.16 mph94%29.56 "Hg2 mi
11:20 PM
Sat, Mar 28
50 °FDrizzle. Fog.18 mph94%29.59 "Hg2 mi
10:20 PM48 °FDrizzle. Fog.18 mph100%29.62 "Hg1 mi
9:20 PM48 °FDrizzle. Fog.17 mph94%29.65 "Hg2 mi
8:20 PM48 °FDrizzle. Fog.16 mph94%29.68 "Hg3 mi
7:20 PM46 °FDrizzle. Fog.15 mph100%29.71 "Hg2 mi
6:20 PM46 °FDrizzle. Fog.16 mph93%29.74 "Hg2 mi
5:20 PM45 °FDrizzle. Fog.16 mph100%29.77 "Hg2 mi
4:20 PM46 °FDrizzle. Fog.17 mph87%29.80 "Hg2 mi
4:00 PM46 °FDrizzle. Fog.15 mph87%29.80 "Hg3 mi
Weather by CustomWeather, © 2015

See weather overviewHow to use our weather pages